[[{"header":{"parameterUnit":"m.s-1","parameterCategory":1,"la1":30.2991,"la2":30.254,"lo1":-89.0895,"lo2":-89.0444,"dy":0.0017,"dx":0.0017,"nx":28,"ny":28,"refTime":"2024-10-17T09:00:00:Z","depth":0,"parameterNumber":2,"parameterNumberName":"U-component_of_WINDS"},"data":[0,0,0,0,0,0,0,0,0,0,0,0,0,0,0,0,0,0,0,0,0,0,0,0,0,0,0,0,0,0,0,0,0,0,0,0,0,0,0,0,0,0,0,0,0,0,0,0,0,0,0,0,0,0,0,0,0,0,-4.7937,-4.7937,0,-4.7936,-4.7936,-4.7936,-4.7779,-4.7775,-4.7771,-4.7767,-4.7766,-4.777,-4.7774,0,0,0,0,0,0,0,0,0,0,0,0,0,-4.78,-4.7803,-4.7937,-4.7937,-4.7937,-4.7936,-4.7936,-4.7936,-4.778,-4.7775,-4.777,-4.7765,-4.7765,-4.7769,-4.7774,0,0,0,0,0,0,0,0,0,0,0,0,0,-4.7836,-4.7804,-4.7937,-4.7858,-4.7851,-4.7936,-4.7936,-4.7936,-4.7781,-4.7775,-4.7769,-4.7763,-4.7763,-4.7769,-4.7774,-4.7934,0,0,-4.7792,-4.7794,0,0,0,0,0,0,0,0,-4.7834,-4.7841,-4.787,-4.7864,-4.7856,-4.7851,-4.7887,-4.7935,-4.7782,-4.7808,-4.7767,-4.776,-4.7799,-4.7802,-4.7815,-4.7934,-4.7933,-4.7792,-4.7796,-4.7798,-4.78,0,0,0,0,0,0,0,-4.7832,-4.784,-4.7936,-4.7871,-4.7862,-4.7823,-4.7821,-4.7896,-4.7838,-4.7805,-4.7794,-4.7796,-4.7794,-4.781,-4.7814,-4.7933,-4.7792,-4.7797,-4.7801,-4.7803,-4.8181,-4.8187,0,0,0,0,0,0,-4.784,-4.7839,-4.7936,-4.7936,-4.783,-4.783,-4.7828,-4.7859,-4.7837,-4.7828,-4.7801,-4.7788,-4.7803,-4.7808,-4.7813,-4.7997,-4.7798,-4.7804,-4.7807,-4.8175,-4.8183,-4.819,0,0,0,0,0,0,-4.7838,-4.785,-4.7936,-4.7885,-4.7892,-4.7839,-4.7875,-4.7863,-4.7878,-4.7834,-4.7823,-4.7828,-4.7799,-4.7805,-4.7905,-4.7995,-4.7806,-4.7812,-4.8167,-4.8177,-4.8186,-4.8367,0,0,0,0,0,0,-4.7834,-4.785,-4.7911,-4.7887,-4.7896,-4.8029,-4.7881,-4.7867,-4.7888,-4.7872,-4.7856,-4.7848,-4.7794,-4.7897,-4.791,-4.7999,-4.7816,-4.8158,-4.8171,-4.8183,-4.8353,-4.8382,-4.8407,0,0,0,0,0,-4.783,-4.7962,-4.7914,-4.7927,-4.797,-4.8034,-4.8039,-4.7975,-4.7896,-4.7956,-4.7928,-4.7848,-4.7983,-4.7909,-4.7922,-4.8014,-4.8152,-4.8168,-4.8182,-4.8341,-4.8376,-4.8406,0,0,0,0,0,0,-4.7997,-4.7957,-4.7904,-4.8032,-4.8038,-4.8007,-4.8081,-4.8015,-4.8043,-4.8026,-4.7946,-4.7944,-4.8056,-4.8045,-4.7962,-4.8167,-4.8054,-4.8072,-4.817,-4.8203,-4.823,-4.8229,-4.7821,0,0,0,0,0,-4.8049,-4.8104,-4.8066,-4.8183,-4.8188,-4.8135,-4.816,-4.8111,-4.8113,-4.8114,-4.8093,-4.8098,-4.8141,-4.8172,-4.8209,-4.8351,-4.8345,-4.8421,-4.8448,-4.847,-4.8487,-4.856,-4.8593,-4.8238,-4.8238,-4.8238,0,0,-4.8156,-4.8141,-4.8181,-4.8216,-4.8214,-4.8273,-4.8138,-4.8206,-4.8248,-4.8124,-4.8216,-4.8202,-4.8202,-4.8323,-4.8375,-4.8317,-4.8584,-4.8489,-4.8508,-4.8512,-4.8579,-4.8613,-4.8642,-4.8249,-4.8247,-4.8245,0,0,-4.8381,-4.8376,-4.8472,-4.8473,-4.8473,-4.8436,-4.846,-4.8439,-4.8424,-4.8516,-4.8424,-4.8473,-4.855,-4.8554,-4.8566,-4.8793,-4.872,-4.8807,-4.8948,-4.902,-4.9048,-4.9073,-4.9153,-4.9183,-4.8824,-4.8824,-4.8825,0,-4.8514,-4.86,-4.853,-4.8604,-4.8621,-4.8513,-4.8609,-4.8613,-4.8625,-4.864,-4.8575,-4.8668,-4.8661,-4.8781,-4.8836,-4.885,-4.8873,-4.8808,-4.905,-4.9074,-4.9096,-4.9171,-4.9201,-4.8835,-4.8834,-4.8833,-4.8832,0,-4.8763,-4.8824,-4.8901,-4.8915,-4.8942,-4.9027,-4.8969,-4.9004,-4.8953,-4.8923,-4.9017,-4.9005,-4.9037,-4.9062,-4.9013,-4.9175,-4.9139,-4.9064,-4.8949,-4.9141,-4.9211,-4.9239,-4.885,-4.8846,-4.8843,-4.884,0,0,-4.9093,-4.9067,-4.9097,-4.9102,-4.9093,-4.9138,-4.9218,-4.925,-4.9281,-4.9293,-4.9358,-4.9425,-4.9355,-4.9369,-4.9319,-4.9383,-4.9562,-4.9298,-4.9297,-4.9347,-4.9739,-4.9796,-4.9831,-4.9514,-4.9519,-4.9524,-4.9739,0,-4.931,-4.9445,-4.9384,-4.9526,-4.958,-4.9477,-4.9547,-4.9549,-4.9523,-4.9565,-4.9537,-4.9586,-4.949,-4.9497,-4.9556,-4.9528,-4.9639,-4.9512,-4.9573,-4.9576,-4.9575,-4.9867,-4.9927,-5.0131,-4.9766,-4.9771,-4.9774,0,-4.9582,-4.9605,-4.9752,-4.9733,-4.9753,-4.9817,-4.9841,-4.9883,-4.9883,-4.9859,-4.9876,-4.9811,-4.9887,-4.9773,-4.9877,-4.9791,-4.9813,-4.9803,-4.9809,-4.9812,-4.9686,-4.9876,-5.0194,-5.0225,-4.9816,-4.9813,-4.981,0,-4.9807,-4.9875,-4.9971,-4.9978,-4.9959,-5.0005,-4.9999,-4.9993,-5.0016,-5.0038,-5.0051,-5.0082,-5.0098,-5.0123,-5.0068,-4.999,-5.0179,-5.0061,-5.0161,-5.0163,-5.0205,-5.0203,-5.053,-5.0221,-5.0221,-5.022,-5.0219,0,-5.0055,-5.0149,-5.0071,-5.0131,-5.0232,-5.0161,-5.0264,-5.0246,-5.0242,-5.0296,-5.0209,-5.0261,-5.0185,-5.023,-5.0188,-5.028,-5.0288,-5.0271,-5.0259,-5.0278,-5.0281,-5.0291,-5.0275,-5.0228,-5.0226,-5.0225,-5.0223,0,-5.0323,-5.0275,-5.0373,-5.0346,-5.0342,-5.0418,-5.0395,-5.0448,-5.0417,-5.0486,-5.0498,-5.0448,-5.0497,-5.0444,-5.0489,-5.046,-5.0584,-5.0551,-5.0584,-5.0574,-5.0677,-5.0668,-5.1022,-5.1064,-5.0729,-5.0733,-5.0735,0,-5.0484,-5.0554,-5.0535,-5.0565,-5.0564,-5.0613,-5.0636,-5.0569,-5.0596,-5.0601,-5.0654,-5.0695,-5.0724,-5.0806,-5.0774,-5.0807,-5.0774,-5.0895,-5.0778,-5.0796,-5.0775,-5.0771,-5.0777,-5.0919,-5.0923,-5.0926,-5.0929,0,-5.0776,-5.0748,-5.0785,-5.0814,-5.0844,-5.0863,-5.0876,-5.0905,-5.0835,-5.0871,-5.0919,-5.0941,-5.0986,-5.1028,-5.1052,-5.1045,-5.0976,-5.0966,-5.0991,-5.1012,-5.1028,-5.102,-5.0648,-5.0958,-5.0955,-5.0953,-5.0952,-5.095,-5.0994,-5.1051,-5.1046,-5.109,-5.1092,-5.1106,-5.1155,-5.1129,-5.1168,-5.12,-5.1158,-5.1218,-5.1215,-5.124,-5.1242,-5.1287,-5.1235,-5.1271,-5.128,-5.129,-5.1305,-5.1022,-5.1291,-5.129,-5.1289,-5.1289,-5.1288,0,-5.128,-5.1272,-5.1313,-5.1333,-5.1367,-5.1299,-5.131,-5.1343,-5.1396,-5.14,-5.143,-5.1486,-5.1525,-5.1497,-5.153,-5.1572,-5.1541,-5.1583,-5.1579,-5.1578,-5.135,-5.1325,-5.1608,-5.1608,-5.1607,-5.1607,-5.1607,-5.1607,-5.1433,-5.1525,-5.1497,-5.159,-5.158,-5.1638,-5.165,-5.1662,-5.1664,-5.173,-5.1762,-5.1743,-5.1734,-5.1766,-5.18,-5.179,-5.1806,-5.1859,-5.1839,-5.1626,-5.1595,-5.1565,-5.154,-5.1864,-5.1864,-5.2063,-5.2065,-5.2066]},{"header":{"parameterUnit":"m.s-1","parameterCategory":1,"la1":30.2991,"la2":30.254,"lo1":-89.0895,"lo2":-89.0444,"dy":0.0017,"dx":0.0017,"nx":28,"ny":28,"refTime":"2024-10-17T09:00:00:Z","depth":0,"parameterNumber":3,"parameterNumberName":"V-component_of_WINDS"},"data":[0,0,0,0,0,0,0,0,0,0,0,0,0,0,0,0,0,0,0,0,0,0,0,0,0,0,0,0,0,0,0,0,0,0,0,0,0,0,0,0,0,0,0,0,0,0,0,0,0,0,0,0,0,0,0,0,0,0,-1.8795,-1.8796,0,-1.8857,-1.8858,-1.8858,-1.885,-1.8849,-1.8848,-1.8847,-1.891,-1.8913,-1.8916,0,0,0,0,0,0,0,0,0,0,0,0,0,-1.8667,-1.867,-1.8795,-1.8796,-1.8796,-1.8857,-1.8858,-1.8859,-1.885,-1.8849,-1.8848,-1.8847,-1.8909,-1.8913,-1.8916,0,0,0,0,0,0,0,0,0,0,0,0,0,-1.8725,-1.867,-1.8795,-1.88,-1.8801,-1.8857,-1.8858,-1.8859,-1.8851,-1.8849,-1.8848,-1.8846,-1.8908,-1.8912,-1.8916,-1.8971,0,0,-1.8928,-1.893,0,0,0,0,0,0,0,0,-1.8722,-1.873,-1.8798,-1.8799,-1.8801,-1.8844,-1.8836,-1.8896,-1.8851,-1.8832,-1.8847,-1.8845,-1.889,-1.8895,-1.891,-1.8974,-1.8977,-1.8929,-1.8931,-1.8933,-1.8934,0,0,0,0,0,0,0,-1.8718,-1.8727,-1.8819,-1.8799,-1.8801,-1.8798,-1.8805,-1.8847,-1.8868,-1.8833,-1.8833,-1.884,-1.889,-1.8906,-1.8911,-1.8978,-1.8928,-1.8932,-1.8934,-1.8936,-1.9088,-1.9089,0,0,0,0,0,0,-1.8713,-1.8724,-1.8817,-1.8821,-1.8757,-1.8802,-1.8809,-1.8832,-1.8868,-1.8872,-1.8842,-1.884,-1.89,-1.8907,-1.8914,-1.8979,-1.8933,-1.8936,-1.8939,-1.9086,-1.9088,-1.909,0,0,0,0,0,0,-1.871,-1.8721,-1.8815,-1.8773,-1.8784,-1.8805,-1.8831,-1.8834,-1.885,-1.8874,-1.8878,-1.8854,-1.8899,-1.8908,-1.8956,-1.8981,-1.8938,-1.8942,-1.9084,-1.9087,-1.9089,-1.9111,0,0,0,0,0,0,-1.8707,-1.872,-1.8742,-1.8773,-1.8787,-1.8858,-1.8833,-1.8836,-1.8857,-1.8855,-1.8887,-1.8891,-1.8899,-1.8951,-1.896,-1.8986,-1.8945,-1.9082,-1.9085,-1.9088,-1.9109,-1.9114,-1.9119,0,0,0,0,0,-1.8702,-1.8746,-1.8743,-1.8755,-1.8814,-1.8859,-1.8867,-1.8875,-1.8859,-1.8881,-1.8896,-1.889,-1.8977,-1.8956,-1.8967,-1.8994,-1.9081,-1.9084,-1.9088,-1.9106,-1.9113,-1.9119,0,0,0,0,0,0,-1.8718,-1.8751,-1.8748,-1.8803,-1.8828,-1.8858,-1.8885,-1.8882,-1.8912,-1.8909,-1.8918,-1.8925,-1.8974,-1.8989,-1.8964,-1.9048,-1.9026,-1.9033,-1.9037,-1.9043,-1.9049,-1.9044,-1.8948,0,0,0,0,0,-1.8728,-1.8762,-1.8788,-1.8835,-1.8848,-1.8864,-1.8884,-1.8888,-1.8914,-1.8925,-1.8944,-1.8969,-1.9002,-1.9023,-1.9055,-1.911,-1.9117,-1.9134,-1.914,-1.9144,-1.9149,-1.9178,-1.9186,-1.9102,-1.9102,-1.9102,0,0,-1.8749,-1.8771,-1.8792,-1.8839,-1.8859,-1.8893,-1.8873,-1.8911,-1.8936,-1.8931,-1.8977,-1.8992,-1.902,-1.9072,-1.9096,-1.9086,-1.9173,-1.9149,-1.9152,-1.9155,-1.9183,-1.9191,-1.9198,-1.9105,-1.9104,-1.9104,0,0,-1.8805,-1.8826,-1.8866,-1.8886,-1.8916,-1.8926,-1.8936,-1.8965,-1.8974,-1.9021,-1.9017,-1.9047,-1.9104,-1.9124,-1.9142,-1.9203,-1.9198,-1.9213,-1.9241,-1.9269,-1.9276,-1.9282,-1.9303,-1.931,-1.9218,-1.9218,-1.9218,0,-1.8828,-1.888,-1.8887,-1.8925,-1.8945,-1.894,-1.8981,-1.9,-1.9038,-1.9052,-1.904,-1.911,-1.9129,-1.9185,-1.92,-1.9214,-1.9225,-1.921,-1.9274,-1.928,-1.9286,-1.9306,-1.9314,-1.922,-1.9219,-1.9219,-1.9219,0,-1.8905,-1.8941,-1.897,-1.9008,-1.9031,-1.9069,-1.9081,-1.9104,-1.9105,-1.9116,-1.9163,-1.9185,-1.9221,-1.9234,-1.9236,-1.929,-1.9283,-1.9273,-1.9251,-1.9295,-1.9314,-1.9322,-1.9222,-1.9221,-1.9221,-1.922,0,0,-1.8975,-1.9014,-1.9025,-1.9041,-1.9073,-1.91,-1.9138,-1.9172,-1.9191,-1.9217,-1.9248,-1.9295,-1.9286,-1.9306,-1.931,-1.9334,-1.938,-1.9321,-1.9322,-1.9331,-1.9439,-1.9447,-1.9456,-1.9377,-1.9378,-1.938,-1.9437,0,-1.9034,-1.9101,-1.9108,-1.9168,-1.92,-1.9195,-1.9228,-1.925,-1.9261,-1.929,-1.9302,-1.9335,-1.932,-1.9331,-1.9356,-1.9369,-1.9402,-1.9365,-1.9406,-1.9407,-1.9399,-1.9466,-1.9474,-1.9527,-1.9444,-1.9445,-1.9446,0,-1.9112,-1.914,-1.9203,-1.9229,-1.9242,-1.9272,-1.9303,-1.933,-1.9355,-1.9361,-1.9383,-1.9383,-1.942,-1.9397,-1.9449,-1.9424,-1.944,-1.9449,-1.9451,-1.9456,-1.943,-1.9472,-1.9544,-1.9552,-1.9458,-1.9457,-1.9457,0,-1.9156,-1.9209,-1.9253,-1.9267,-1.9298,-1.9319,-1.9333,-1.9356,-1.9376,-1.9402,-1.9415,-1.9446,-1.9463,-1.9486,-1.9494,-1.9477,-1.9545,-1.9523,-1.9551,-1.9551,-1.9566,-1.9565,-1.9642,-1.9576,-1.9576,-1.9576,-1.9576,0,-1.9221,-1.926,-1.9273,-1.93,-1.9343,-1.9349,-1.9391,-1.9403,-1.9424,-1.9453,-1.945,-1.9477,-1.9486,-1.9514,-1.952,-1.9561,-1.9569,-1.9575,-1.9576,-1.9575,-1.9574,-1.9586,-1.9583,-1.9578,-1.9578,-1.9577,-1.9577,0,-1.9278,-1.9288,-1.9336,-1.9361,-1.9368,-1.9398,-1.9419,-1.9445,-1.9454,-1.9491,-1.95,-1.9515,-1.9548,-1.9557,-1.9597,-1.9601,-1.965,-1.9648,-1.9641,-1.9641,-1.9669,-1.9666,-1.9756,-1.9768,-1.9695,-1.9695,-1.9696,0,-1.9319,-1.9348,-1.9376,-1.9395,-1.9409,-1.944,-1.946,-1.9466,-1.9486,-1.9516,-1.9538,-1.957,-1.9596,-1.9649,-1.9663,-1.9693,-1.9692,-1.9721,-1.9696,-1.9694,-1.9692,-1.969,-1.9693,-1.9726,-1.9727,-1.9728,-1.9728,0,-1.939,-1.9393,-1.9422,-1.9452,-1.9475,-1.9499,-1.9522,-1.9538,-1.9547,-1.957,-1.9603,-1.9624,-1.9663,-1.9695,-1.9725,-1.9739,-1.9735,-1.9736,-1.9744,-1.9743,-1.9738,-1.9741,-1.9654,-1.9734,-1.9733,-1.9733,-1.9733,-1.9732,-1.944,-1.9465,-1.9488,-1.9519,-1.9537,-1.9558,-1.9583,-1.9595,-1.9623,-1.9656,-1.9658,-1.9694,-1.9716,-1.9756,-1.977,-1.9798,-1.979,-1.9801,-1.9804,-1.9807,-1.9809,-1.9733,-1.9804,-1.9804,-1.9803,-1.9803,-1.9803,0,-1.9511,-1.9525,-1.9553,-1.9585,-1.9609,-1.9603,-1.9627,-1.9648,-1.9679,-1.97,-1.9726,-1.9763,-1.9794,-1.981,-1.984,-1.9859,-1.9858,-1.9866,-1.9865,-1.9868,-1.9815,-1.9805,-1.9867,-1.9867,-1.9867,-1.9867,-1.9867,-1.9867,-1.955,-1.9593,-1.9598,-1.9648,-1.9662,-1.9697,-1.9711,-1.973,-1.9747,-1.9789,-1.9814,-1.9824,-1.9842,-1.9873,-1.9901,-1.9904,-1.9915,-1.9925,-1.9928,-1.9879,-1.9872,-1.9866,-1.9856,-1.9928,-1.9928,-1.9979,-1.9979,-1.9979]}]]